Time,TemperatureF,DewpointF,PressureIn,WindDirection,WindDirectionDegrees,WindSpeedMPH,WindSpeedGustMPH,Humidity,HourlyPrecipIn,Conditions,Clouds,dailyrainin,SoftwareType,DateUTC
2013-02-23 00:10:00,0.7,-0.6,29.67,NNE,22,1.7,-999.0,94,-99.99,,,0.00,Acu-Link.com,2013-02-23 07:10:00,
2013-02-23 00:25:00,0.0,-1.1,29.67,WSW,247,1.1,-999.0,95,-99.99,,,0.00,Acu-Link.com,2013-02-23 07:25:00,
2013-02-23 00:41:00,-1.3,-1.7,29.68,NNW,337,0.0,-999.0,98,-99.99,,,0.00,Acu-Link.com,2013-02-23 07:41:00,
2013-02-23 00:56:00,-2.7,-3.3,29.67,North,0,0.0,-999.0,97,-99.99,,,0.00,Acu-Link.com,2013-02-23 07:56:00,
2013-02-23 01:11:00,-2.7,-3.1,29.67,NNE,22,1.7,-999.0,98,-99.99,,,0.00,Acu-Link.com,2013-02-23 08:11:00,
2013-02-23 01:26:00,-2.6,-3.0,29.65,North,0,0.0,-999.0,98,-99.99,,,0.00,Acu-Link.com,2013-02-23 08:26:00,
2013-02-23 01:41:00,-3.6,-4.0,29.66,SSE,157,0.0,-999.0,98,-99.99,,,0.00,Acu-Link.com,2013-02-23 08:41:00,
2013-02-23 01:57:00,-4.4,-4.8,29.66,South,180,0.0,-999.0,98,-99.99,,,0.00,Acu-Link.com,2013-02-23 08:57:00,
2013-02-23 02:20:00,-4.7,-5.1,29.66,North,0,2.7,-999.0,98,-99.99,,,0.00,Acu-Link.com,2013-02-23 09:20:00,
2013-02-23 02:35:00,-5.4,-6.7,29.65,SSW,202,0.0,-999.0,94,-99.99,,,0.00,Acu-Link.com,2013-02-23 09:35:00,
2013-02-23 02:51:00,-4.9,-5.3,29.66,WSW,247,0.0,-999.0,98,-99.99,,,0.00,Acu-Link.com,2013-02-23 09:51:00,
2013-02-23 03:06:00,-4.5,-5.8,29.65,South,180,0.0,-999.0,94,-99.99,,,0.00,Acu-Link.com,2013-02-23 10:06:00,
2013-02-23 03:21:00,-5.6,-7.5,29.66,SSE,157,0.0,-999.0,91,-99.99,,,0.00,Acu-Link.com,2013-02-23 10:21:00,
2013-02-23 03:36:00,-6.2,-7.7,29.65,SSW,202,0.0,-999.0,93,-99.99,,,0.00,Acu-Link.com,2013-02-23 10:36:00,
2013-02-23 03:51:00,-7.1,-9.9,29.64,NNE,22,0.0,-999.0,87,-99.99,,,0.00,Acu-Link.com,2013-02-23 10:51:00,
2013-02-23 04:07:00,-8.3,-11.8,29.64,North,0,2.7,-999.0,84,-99.99,,,0.00,Acu-Link.com,2013-02-23 11:07:00,
2013-02-23 04:22:00,-7.6,-8.6,29.64,SW,225,0.0,-999.0,95,-99.99,,,0.00,Acu-Link.com,2013-02-23 11:22:00,
2013-02-23 04:37:00,-9.2,-12.5,29.63,ESE,112,0.0,-999.0,85,-99.99,,,0.00,Acu-Link.com,2013-02-23 11:37:00,
2013-02-23 04:52:00,-11.0,-15.2,29.63,NNE,22,2.2,-999.0,81,-99.99,,,0.00,Acu-Link.com,2013-02-23 11:52:00,
2013-02-23 05:07:00,-11.6,-14.8,29.64,WNW,292,0.0,-999.0,85,-99.99,,,0.00,Acu-Link.com,2013-02-23 12:07:00,
2013-02-23 05:22:00,-11.7,-14.7,29.64,SE,135,0.0,-999.0,86,-99.99,,,0.00,Acu-Link.com,2013-02-23 12:22:00,
2013-02-23 05:38:00,-12.3,-15.7,29.65,ESE,112,0.0,-999.0,84,-99.99,,,0.00,Acu-Link.com,2013-02-23 12:38:00,
2013-02-23 05:53:00,-13.4,-17.8,29.65,NE,45,0.0,-999.0,80,-99.99,,,0.00,Acu-Link.com,2013-02-23 12:53:00,
2013-02-23 06:08:00,-14.3,-18.4,29.65,NE,45,0.0,-999.0,81,-99.99,,,0.00,Acu-Link.com,2013-02-23 13:08:00,
2013-02-23 06:23:00,-14.3,-17.9,29.65,North,0,0.0,-999.0,83,-99.99,,,0.00,Acu-Link.com,2013-02-23 13:23:00,
2013-02-23 06:38:00,-13.0,-14.6,29.65,NNE,22,2.7,-999.0,92,-99.99,,,0.00,Acu-Link.com,2013-02-23 13:38:00,
2013-02-23 06:54:00,-13.0,-16.4,29.65,NNW,337,0.0,-999.0,84,-99.99,,,0.00,Acu-Link.com,2013-02-23 13:54:00,
2013-02-23 07:09:00,-11.4,-14.4,29.65,ENE,67,1.7,-999.0,86,-99.99,,,0.00,Acu-Link.com,2013-02-23 14:09:00,
2013-02-23 07:24:00,-3.3,-5.7,29.65,ENE,67,0.0,-999.0,89,-99.99,,,0.00,Acu-Link.com,2013-02-23 14:24:00,
2013-02-23 07:40:00,-1.3,-6.5,29.66,NE,45,2.7,-999.0,78,-99.99,,,0.00,Acu-Link.com,2013-02-23 14:40:00,
2013-02-23 07:55:00,1.9,-3.9,29.66,East,90,0.0,-999.0,76,-99.99,,,0.00,Acu-Link.com,2013-02-23 14:55:00,
2013-02-23 08:10:00,3.4,-4.1,29.67,ESE,112,1.7,-999.0,70,-99.99,,,0.00,Acu-Link.com,2013-02-23 15:10:00,
2013-02-23 08:25:00,12.6,1.0,29.67,ENE,67,3.2,-999.0,59,-99.99,,,0.00,Acu-Link.com,2013-02-23 15:25:00,
2013-02-23 08:40:00,8.4,-4.0,29.68,ENE,67,4.7,-999.0,56,-99.99,,,0.00,Acu-Link.com,2013-02-23 15:40:00,
2013-02-23 08:55:00,7.7,-3.6,29.67,ENE,67,3.2,-999.0,59,-99.99,,,0.00,Acu-Link.com,2013-02-23 15:55:00,
2013-02-23 09:11:00,11.1,-0.8,29.65,ENE,67,4.2,-999.0,58,-99.99,,,0.00,Acu-Link.com,2013-02-23 16:11:00,
2013-02-23 09:26:00,10.8,-1.4,29.65,NE,45,4.2,-999.0,57,-99.99,,,0.00,Acu-Link.com,2013-02-23 16:26:00,
2013-02-23 09:41:00,19.2,3.6,29.66,SE,135,3.2,-999.0,50,-99.99,,,0.00,Acu-Link.com,2013-02-23 16:41:00,
2013-02-23 09:56:00,17.1,3.0,29.65,ESE,112,2.2,-999.0,53,-99.99,,,0.00,Acu-Link.com,2013-02-23 16:56:00,
2013-02-23 10:11:00,15.4,2.9,29.64,East,90,4.2,-999.0,57,-99.99,,,0.00,Acu-Link.com,2013-02-23 17:11:00,
2013-02-23 10:27:00,17.6,5.7,29.63,ENE,67,3.7,-999.0,59,-99.99,,,0.00,Acu-Link.com,2013-02-23 17:27:00,
2013-02-23 10:42:00,18.3,5.7,29.61,ESE,112,2.7,-999.0,57,-99.99,,,0.00,Acu-Link.com,2013-02-23 17:42:00,
2013-02-23 10:57:00,19.2,6.9,29.61,East,90,3.2,-999.0,58,-99.99,,,0.00,Acu-Link.com,2013-02-23 17:57:00,
2013-02-23 11:12:00,19.9,7.2,29.60,NNE,22,2.7,-999.0,57,-99.99,,,0.00,Acu-Link.com,2013-02-23 18:12:00,
2013-02-23 11:28:00,20.7,7.5,29.58,ENE,67,3.2,-999.0,56,-99.99,,,0.00,Acu-Link.com,2013-02-23 18:28:00,
2013-02-23 11:43:00,22.8,9.1,29.57,NE,45,5.8,-999.0,55,-99.99,,,0.00,Acu-Link.com,2013-02-23 18:43:00,
2013-02-23 11:58:00,24.4,9.3,29.55,NE,45,2.7,-999.0,52,-99.99,,,0.00,Acu-Link.com,2013-02-23 18:58:00,
2013-02-23 12:13:00,25.9,13.2,29.55,NE,45,2.7,-999.0,58,-99.99,,,0.00,Acu-Link.com,2013-02-23 19:13:00,
2013-02-23 12:29:00,24.4,11.8,29.53,NE,45,2.7,-999.0,58,-99.99,,,0.00,Acu-Link.com,2013-02-23 19:29:00,
2013-02-23 12:44:00,26.6,13.4,29.52,NE,45,2.7,-999.0,57,-99.99,,,0.00,Acu-Link.com,2013-02-23 19:44:00,
2013-02-23 12:59:00,29.5,15.3,29.51,NE,45,2.2,-999.0,55,-99.99,,,0.00,Acu-Link.com,2013-02-23 19:59:00,
2013-02-23 13:14:00,24.4,14.0,29.48,NNE,22,3.7,-999.0,64,-99.99,,,0.00,Acu-Link.com,2013-02-23 20:14:00,
2013-02-23 13:29:00,28.2,16.9,29.48,West,270,0.0,-999.0,62,-99.99,,,0.00,Acu-Link.com,2013-02-23 20:29:00,
2013-02-23 13:45:00,26.2,17.1,29.47,ENE,67,2.7,-999.0,68,-99.99,,,0.00,Acu-Link.com,2013-02-23 20:45:00,
2013-02-23 14:00:00,26.1,13.8,29.46,NE,45,2.2,-999.0,59,-99.99,,,0.00,Acu-Link.com,2013-02-23 21:00:00,
2013-02-23 14:15:00,25.2,15.1,29.44,NNE,22,3.7,-999.0,65,-99.99,,,0.00,Acu-Link.com,2013-02-23 21:15:00,
2013-02-23 14:30:00,23.5,14.5,29.43,East,90,1.1,-999.0,68,-99.99,,,0.00,Acu-Link.com,2013-02-23 21:30:00,
2013-02-23 14:45:00,23.9,13.9,29.43,NNE,22,2.7,-999.0,65,-99.99,,,0.00,Acu-Link.com,2013-02-23 21:45:00,
2013-02-23 15:00:00,23.4,14.4,29.41,ENE,67,2.7,-999.0,68,-99.99,,,0.00,Acu-Link.com,2013-02-23 22:00:00,
2013-02-23 15:16:00,21.9,14.0,29.38,ENE,67,5.8,-999.0,71,-99.99,,,0.00,Acu-Link.com,2013-02-23 22:16:00,
2013-02-23 15:31:00,18.0,13.2,29.37,ESE,112,3.2,-999.0,81,-99.99,,,0.00,Acu-Link.com,2013-02-23 22:31:00,
2013-02-23 15:46:00,19.9,13.9,29.38,ENE,67,2.7,-999.0,77,-99.99,,,0.00,Acu-Link.com,2013-02-23 22:46:00,
2013-02-23 16:01:00,22.3,14.0,29.38,NE,45,1.1,-999.0,70,-99.99,,,0.00,Acu-Link.com,2013-02-23 23:01:00,
2013-02-23 16:16:00,22.5,15.2,29.37,SE,135,2.7,-999.0,73,-99.99,,,0.00,Acu-Link.com,2013-02-23 23:16:00,
2013-02-23 16:32:00,23.4,15.4,29.37,SE,135,2.2,-999.0,71,-99.99,,,0.00,Acu-Link.com,2013-02-23 23:32:00,
2013-02-23 16:47:00,22.6,15.9,29.37,East,90,0.0,-999.0,75,-99.99,,,0.00,Acu-Link.com,2013-02-23 23:47:00,
2013-02-23 17:02:00,19.2,16.5,29.39,SW,225,2.7,-999.0,89,-99.99,,,0.00,Acu-Link.com,2013-02-24 00:02:00,
2013-02-23 17:17:00,19.9,16.1,29.38,SSW,202,3.2,-999.0,85,-99.99,,,0.00,Acu-Link.com,2013-02-24 00:17:00,
2013-02-23 17:33:00,19.4,17.2,29.39,South,180,1.7,-999.0,91,-99.99,,,0.00,Acu-Link.com,2013-02-24 00:33:00,
2013-02-23 17:48:00,18.0,16.3,29.37,WSW,247,0.0,-999.0,93,-99.99,,,0.00,Acu-Link.com,2013-02-24 00:48:00,
2013-02-23 18:03:00,16.3,15.8,29.38,South,180,1.7,-999.0,98,-99.99,,,0.00,Acu-Link.com,2013-02-24 01:03:00,
2013-02-23 18:18:00,14.7,14.2,29.38,SW,225,2.2,-999.0,98,-99.99,,,0.00,Acu-Link.com,2013-02-24 01:18:00,
2013-02-23 18:34:00,12.2,11.7,29.38,SW,225,0.0,-999.0,98,-99.99,,,0.00,Acu-Link.com,2013-02-24 01:34:00,
2013-02-23 18:49:00,11.7,11.2,29.37,NE,45,0.0,-999.0,98,-99.99,,,0.00,Acu-Link.com,2013-02-24 01:49:00,
2013-02-23 19:04:00,10.6,10.1,29.38,East,90,0.0,-999.0,98,-99.99,,,0.00,Acu-Link.com,2013-02-24 02:04:00,
2013-02-23 19:20:00,7.7,7.3,29.37,NE,45,3.2,-999.0,98,-99.99,,,0.00,Acu-Link.com,2013-02-24 02:20:00,
2013-02-23 19:35:00,10.2,9.7,29.36,NNW,337,2.7,-999.0,98,-99.99,,,0.00,Acu-Link.com,2013-02-24 02:35:00,
2013-02-23 19:50:00,11.5,11.0,29.36,NNE,22,2.2,-999.0,98,-99.99,,,0.00,Acu-Link.com,2013-02-24 02:50:00,
2013-02-23 20:05:00,9.3,8.9,29.36,East,90,3.2,-999.0,98,-99.99,,,0.00,Acu-Link.com,2013-02-24 03:05:00,
2013-02-23 20:20:00,11.1,10.6,29.36,East,90,1.7,-999.0,98,-99.99,,,0.00,Acu-Link.com,2013-02-24 03:20:00,
2013-02-23 20:36:00,11.3,10.8,29.36,North,0,2.2,-999.0,98,-99.99,,,0.00,Acu-Link.com,2013-02-24 03:36:00,
2013-02-23 20:51:00,12.0,11.5,29.37,North,0,0.0,-999.0,98,-99.99,,,0.00,Acu-Link.com,2013-02-24 03:51:00,
2013-02-23 21:06:00,12.0,11.5,29.36,NNW,337,0.0,-999.0,98,-99.99,,,0.00,Acu-Link.com,2013-02-24 04:06:00,
2013-02-23 21:21:00,12.4,11.9,29.36,NNE,22,0.0,-999.0,98,-99.99,,,0.00,Acu-Link.com,2013-02-24 04:21:00,
2013-02-23 21:37:00,12.4,11.9,29.36,SSW,202,1.7,-999.0,98,-99.99,,,0.00,Acu-Link.com,2013-02-24 04:37:00,
2013-02-23 21:52:00,12.2,11.7,29.34,WSW,247,1.1,-999.0,98,-99.99,,,0.00,Acu-Link.com,2013-02-24 04:52:00,
2013-02-23 22:07:00,12.0,11.5,29.33,SSE,157,1.1,-999.0,98,-99.99,,,0.00,Acu-Link.com,2013-02-24 05:07:00,
2013-02-23 22:22:00,11.5,11.0,29.33,SSW,202,2.2,-999.0,98,-99.99,,,0.00,Acu-Link.com,2013-02-24 05:22:00,
2013-02-23 22:37:00,11.7,11.2,29.32,NE,45,0.0,-999.0,98,-99.99,,,0.00,Acu-Link.com,2013-02-24 05:37:00,
2013-02-23 22:52:00,12.0,11.5,29.32,WSW,247,0.0,-999.0,98,-99.99,,,0.00,Acu-Link.com,2013-02-24 05:52:00,
2013-02-23 23:08:00,12.4,11.9,29.32,SW,225,0.0,-999.0,98,-99.99,,,0.00,Acu-Link.com,2013-02-24 06:08:00,
2013-02-23 23:23:00,12.4,11.9,29.31,SW,225,0.0,-999.0,98,-99.99,,,0.00,Acu-Link.com,2013-02-24 06:23:00,
2013-02-23 23:38:00,12.4,11.9,29.32,SW,225,0.0,-999.0,98,-99.99,,,0.00,Acu-Link.com,2013-02-24 06:38:00,
2013-02-23 23:54:00,12.9,12.4,29.33,SW,225,3.7,-999.0,98,-99.99,,,0.00,Acu-Link.com,2013-02-24 06:54:00,